STARLINK-32432, 61257

Orbit data source: Space-Track

STARLINK-32432, 61257 is a payload satellite owned by SpaceX/Seattle (US) in LEO that was launched on Wed, 25 Sep 2024 UTC via an FALCON 9 launch vehicle from the Air Force Western Test Range (AFWTR). Payload-class satellites include a variety of spacecraft equipped with specific instruments for various scientific and technological missions. These include communications satellites like Starlink; space stations such as the ISS; scientific satellites like the Hubble; Earth observation satellites from companies like Planet Labs, Umbra, and HawkEye 360; GPS; miniature CubeSats for education and research; and military/defense satellites.

Loading next visibility...
Identifier
61257, 2024-175Q
Orbit
LEO
Country
Flag of USUS
Related business
Manufacturer
SpaceX/Seattle
Mission
Operational Commercial Communications
Bus & Motor
STARLINK V2M, Unknown motor
Mass
730 kg wet, ~700 kg dry
Launch date (UTC)
2024-09-25 (1 year ago)
Launch vehicle
FALCON 9
Launch site
Air Force Western Test Range (AFWTR)
Object type
Payload
Rocket body
Debris
Shape & HBR
Box + 2 Pan, 14.5 m
Radar Cross Section
33.884 m², Large (>1 m²)

Expand to show TLE details & history
Last TLE update: 1 day ago

TLE from 1 day ago
0 STARLINK-32432
1 61257U 24175Q   25259.76001804 -.00000668  00000-0 -10436-4 0  9999
2 61257  53.1601 281.9642 0001121  83.4855 276.6274 15.30187331 54824
Epoch: 2025-09-16T18:14Z
TLE epoch observation values (Epoch: 2025-09-16T18:14:25.558Z)
Latitude
0.00002°
Longitude
12.41202°
Altitude
476.064 km
Speed
7.629 km/s
True Right ascension
18h 47m 51s
True Declination
0° 00' 00"
Sunlit
Object was in daylight at epoch
Visualization orbit readout
Latitude
Unknown
Longitude
Unknown
Altitude
Unknown
Speed
Unknown
Apparent Right ascension
Unknown
Apparent Declination
Unknown
Sunlit
N/A
Visualization observer readout
Local Sidereal Time
18:46:54
Azimuth
Unknown
Elevation
Unknown
Doppler factor
Unknown
Orbital elements
Apogee altitude
476.278 km
Perigee altitude
474.741 km
Semi-major axis
6,853.646 km
Eccentricity
0.00011
Inclination
53.1601°
RAAN
281.9642°
Arg. of periapsis
83.4855°
True anomaly
276.61464°
Mean anomaly
276.6274°
Eccentric anomaly
276.62102°
Mean motion
3.82526 °/min
Orbital period
94.11 mins
BSTAR
-0.000010436
Loading maneuver chart data...
Computing Atmospheric mass density...
Loading historical data...
Loading historical data...
Loading historical data...
Loading historical data...
Loading historical data...
Loading historical data...
Loading historical data...

Documentation

Showing up to 5 results
|